Regional Weather Roundup
Issued by NWS

Home | Current Version | Previous Version | Text Only | Print | Product List | Glossary Off
Versions: 1 2 3 4 5 6 7 8 9 10 11 12 13 14 15 16 17 18 19 20 21 22 23 24 25 26 27 28 29 30 31 32 33 34 35 36 37 38 39 40 41 42 43 44 45 46 47 48 49 50

000
ASUS45 KTFX 272110
RWRMT
MONTANA REGIONAL WEATHER ROUNDUP
NATIONAL WEATHER SERVICE GREAT FALLS MT
300 PM MDT THU APR 27 2017

NOTE: "FAIR" INDICATES FEW OR NO CLOUDS BELOW 12000 FEET WITH NO
SIGNIFICANT WEATHER AND/OR OBSTRUCTIONS TO VISIBILITY.

MTZ001>007-043-272200-
WEST OF THE DIVIDE

CITY           SKY/WX    TMP DP  RH WIND       PRES   REMARKS
KALISPELL      LGT RAIN  42  39  89 SE12      29.79R
MISSOULA       LGT RAIN  47  29  49 W9G22     29.83S
BUTTE          SUNNY     43  23  45 N12G24    29.73R
MULLAN PASS    CLOUDY    28  27  96 VRB3      29.81S
ANACONDA         N/A     43  18  36 SW17G24   29.74R
DEER LODGE       N/A     45  23  42 NW14G23   29.77R
EUREKA           N/A     46  36  66 SE10      29.75R
HAMILTON         N/A     45  23  42 SW15G26   29.82R
LIBBY            N/A     48  28  46 S5        29.80R
PLAINS           N/A     48  30  50 W7        29.86S
$$

MTZ008-052>055-272200-
SOUTHWEST MONTANA

CITY           SKY/WX    TMP DP  RH WIND       PRES   REMARKS
BOZEMAN        CLOUDY    39  36  89 SE10      29.72R
DILLON         CLOUDY    43  24  47 VRB6      29.71S
W YELLOWSTONE  CLOUDY    37  19  48 NW8       29.69R WCI  31
THREE FORKS      N/A     47  -2  13 NE9       29.73S
TWIN BRIDGES     N/A     46  21  37 N2        29.74S
$$

MTZ009-010-012-014-046-048-049-054-272200-
EAST SLOPES AND CENTRAL MONTANA

CITY           SKY/WX    TMP DP  RH WIND       PRES   REMARKS
CUT BANK       FLURRIES  36  34  92 N12       29.75R WCI  28
GREAT FALLS    CLOUDY    44  34  67 NW18      29.71R
MALMSTROM AFB  CLOUDY    43  37  80 NW14G22   29.72R
HELENA         CLOUDY    50  25  37 NW22G28   29.71R
AUGUSTA        PTSUNNY   40  36  86 N15       29.72R
CHOTEAU          N/A     39  39 100 NW12      29.76R FOG     WCI  32
RAYNESFORD     RAIN      36  35  96 W21G26    29.72R WCI  25
$$

MTZ011-013-016-021-045-047-050-051-272200-
NORTH CENTRAL MONTANA

CITY           SKY/WX    TMP DP  RH WIND       PRES   REMARKS
HAVRE          CLOUDY    43  37  79 N13       29.71R
LEWISTOWN      CLOUDY    44  39  82 NW12G22   29.67R
N BAR RANCH    PTSUNNY   45  36  70 NW18      29.68R
CHINOOK          N/A     45  37  76 N7        29.70R
FORT BENTON      N/A     46  39  76 MISG      29.71R
GEYSER         LGT RAIN  39  35  86 W25G32    29.69R WCI  28
JUDITH GAP     LGT RAIN  41  34  76 N26       29.64R
STANFORD         N/A     42  35  74 NW24      29.67S
$$

MTZ017>020-022>027-061-062-272200-
NORTHEAST MONTANA

CITY           SKY/WX    TMP DP  RH WIND       PRES   REMARKS
GLASGOW        SUNNY     55  25  31 SE10      29.67F
JORDAN           N/A     55  28  35 E13       29.64S
SIDNEY         SUNNY     52  20  28 NE12      29.71S
WOLF POINT     MOSUNNY   56  25  30 E15       29.70S
MALTA          CLOUDY    50  39  66 CALM      29.67S
PLENTYWOOD       N/A     48  12  23 SE9G17    29.74S
POPLAR           N/A     52  19  28 E8G18     29.72S
SCOBEY           N/A     53  19  26 E6        29.72S
$$

MTZ028>42-056>058-272200-
SOUTHCENTRAL AND SOUTHEAST MONTANA

CITY           SKY/WX    TMP DP  RH WIND       PRES   REMARKS
BAKER          SUNNY     47  25  42 SE13G22   29.66S
BILLINGS       LGT RAIN  41  38  89 NW16      29.65R FOG
LIVINGSTON     CLOUDY    42  34  73 W16       29.68S
MILES CITY     PTSUNNY   54  30  40 NE9       29.63R
BIG TIMBER     MOSUNNY   45  34  65 W21G30    29.69R
EKALAKA          N/A     49  27  42 SE13      29.65R
LAUREL           N/A     44  34  68 N9        29.67R
ROUNDUP          N/A     48  35  60 N9        29.60R
$$

REGIONAL REPORTS...DAKOTAS

CITY           SKY/WX    TMP DP  RH WIND       PRES   REMARKS
WILLISTON      SUNNY     53  18  25 SE9       29.73S
MINOT          SUNNY     51  11  20 N12G21    29.73S
DICKINSON      SUNNY     49  22  34 SE10      29.67S
BEACH            N/A     50  18  27 E13G22    29.71S
TIOGA            N/A     48   9  20 E12       29.75S
WATFORD CITY     N/A     50  16  25 E9G18     29.72F
BISMARCK       SUNNY     52  25  35 VRB6      29.71S
GRAND FORKS    PTSUNNY   47  33  58 N20G25    29.65F
FARGO          SUNNY     37  27  67 N12       29.68F WCI  29
BUFFALO SD       N/A     50  27  40 E12G20    29.59S
RAPID CITY     CLOUDY    48  34  58 E14       29.63S
$$

REGIONAL REPORTS...WYOMING/IDAHO/WASHINGTON

CITY           SKY/WX    TMP DP  RH WIND       PRES   REMARKS
GILLETTE       LGT RAIN  37  36  96 CALM      29.58R
SHERIDAN       LGT SNOW  34  32  92 NW7       29.63R FOG     WCI  28
BUFFALO WY     CLOUDY    36  31  82 N20G25    29.59S WCI  25
CODY           CLOUDY    46  33  60 NE25G33   29.60R
YELLOWSTONE LA   N/A     32  21  64 MISG      29.67R
IDAHO FALLS    CLOUDY    43  34  70 SW16G24   29.75R
SALMON         CLOUDY    45  27  49 NE12      29.78F
BOISE          CLOUDY    49  27  42 NW20G29   29.94F
SPOKANE        LGT RAIN  46  34  62 SW15      29.88R
$$

REGIONAL REPORTS...ALBERTA

CITY           SKY/WX    TMP DP  RH WIND       PRES   REMARKS
EDMONTON       CLOUDY    39  30  70 E10       29.80S
CALGARY        PTSUNNY   46  32  57 NE13G20   29.72R
LETHBRIDGE     PTSUNNY   45  36  70 S10       29.75R
MEDICINE HAT   PTSUNNY   52  28  40 N13G21    29.73R
CARDSTON         N/A     45  36  70 NE5         N/A
MILK RIVER       N/A     46  34  61 N5          N/A
$$

REGIONAL REPORTS...SASKATCHEWAN

CITY           SKY/WX    TMP DP  RH WIND       PRES   REMARKS
SWIFT CURRENT  CLOUDY    46  30  53 S14G21    29.71R
REGINA         PTSUNNY   50  14  23 E10G18    29.78R
SASKATOON      CLOUDY    48  19  32 E15       29.82S
VAL MARIE        N/A     46  30  53 S10         N/A
ASSINIBOIA       N/A     39  32  75 E12         N/A  WCI  32
$$



USA.gov is the U.S. government's official web portal to all federal, state and local government web resources and services.